Miscellaneous Local Product
Issued by NWS Hastings, NE

Home | Current Version | Previous Version | Graphics & Text | Print | Product List | Glossary Off
Versions: 1 2 3 4 5 6 7 8 9 10 11 12 13 14 15 16 17 18 19 20 21 22 23 24 25 26 27 28 29 30 31 32 33 34 35 36 37 38 39 40 41 42 43 44 45 46 47 48 49 50

086
AXUS43 KGID 131702
MISGRI

GID CWA HOURLY WEATHER ROUNDUP
NATIONAL WEATHER SERVICE HASTINGS NE
1100 AM CST SAT FEB 13 2016

NOTE: "FAIR" INDICATES FEW OR NO CLOUDS BELOW 12,000 FEET WITH NO
SIGNIFICANT WEATHER AND/OR OBSTRUCTIONS TO VISIBILITY.

...SOUTH CENTRAL NEBRASKA...

CITY           SKY/WX    TMP DP  RH WIND       PRES   REMARKS
GRAND ISLAND   CLOUDY    18   9  68 S15       30.40F WCI   4
HASTINGS       CLOUDY    19   8  62 SE14      30.38F WCI   6
KEARNEY        CLOUDY    19  12  73 S16       30.35F WCI   5
ORD            CLOUDY    19   5  54 SE14G23   30.34F WCI   6
YORK           CLOUDY    18   7  62 SE13      30.45F WCI   4
AURORA         CLOUDY    18   9  68 SE14      30.42F WCI   4
LEXINGTON      CLOUDY    22  16  78 S17       30.31F WCI   8
HOLDREGE       CLOUDY    20  15  79 S14       30.34F WCI   7
HEBRON         CLOUDY    21   5  50 SE13      30.45F WCI   9

...NEBRASKA PANHANDLE...

CITY           SKY/WX    TMP DP  RH WIND       PRES   REMARKS
CHADRON        CLOUDY    42  32  67 S12       29.99F
ALLIANCE       CLOUDY    32  30  92 S16       30.03F WCI  21
SCOTTSBLUFF    CLOUDY    36  32  85 SE9       30.02F WCI  29
SIDNEY         CLOUDY    30  30 100 S15       30.06F FOG     WCI  19

...WESTERN AND NORTH CENTRAL NEBRASKA...

CITY           SKY/WX    TMP DP  RH WIND       PRES   REMARKS
VALENTINE      CLOUDY    25  21  85 S21G26    30.15F WCI  11
AINSWORTH      CLOUDY    23  16  73 SE21      30.20F WCI   8
ONEILL         CLOUDY    17   8  70 S16G22    30.34F WCI   1
BROKEN BOW     CLOUDY    19  14  81 S20G25    30.27F WCI   3
IMPERIAL       CLOUDY    25  24  96 S17       30.16F WCI  12
NORTH PLATTE   CLOUDY    23  18  81 S17       30.21F WCI   9
MCCOOK         CLOUDY    22  18  85 S16       30.26F WCI   8

...EASTERN NEBRASKA...

CITY           SKY/WX    TMP DP  RH WIND       PRES   REMARKS
NORFOLK        CLOUDY    13   5  70 SE14      30.44F WCI  -2
SO SIOUX CITY  CLOUDY     9  -1  64 SE15      30.53F WCI  -8
TEKAMAH        CLOUDY    10   2  69 SE10      30.56F WCI  -4
COLUMBUS       CLOUDY    16   0  48 SE8       30.47F WCI   5
ALBION         CLOUDY    15   7  71 SE13      30.42S WCI   1
OMAHA EPPLEY   CLOUDY    14   4  64 SE10      30.56F WCI   1
OFFUTT AFB     CLOUDY    15   3  60 SE10      30.55F WCI   2
MILLARD        CLOUDY    14   3  62 SE8       30.55F WCI   3
LINCOLN        CLOUDY    17   4  56 SE9       30.52F WCI   6
NEBRASKA CITY  CLOUDY    16   4  60 SE9       30.54F WCI   4
BEATRICE       CLOUDY    19   4  51 SE9       30.49F WCI   8
FALLS CITY     CLOUDY    18   3  52 SE8       30.56F WCI   8

...NORTHERN KANSAS...

CITY           SKY/WX    TMP DP  RH WIND       PRES   REMARKS
GOODLAND       FOG       26  25  96 S17       30.16F VSB 1/4 WCI  13
HILL CITY      CLOUDY    24  17  74 SE15      30.33F WCI  11
NORTON         CLOUDY    21  12  68 SE15      30.31F WCI   8
PHILLIPSBURG   CLOUDY    23  16  74 SE14      30.37F WCI  11
SMITH CENTER   CLOUDY    19  10  68 SE15      30.40F WCI   5
BELOIT         CLOUDY    21   3  45 SE9       30.43F WCI  11
HAYS           CLOUDY    27   9  46 S18       30.35F WCI  13
RUSSELL        CLOUDY    25  13  60 SE15      30.37F WCI  13
CONCORDIA      CLOUDY    21   2  43 SE12      30.44F WCI   9
SALINA         CLOUDY    27   3  35 SE10      30.47F WCI  17
TOPEKA         CLOUDY    23   1  38 E8        30.55F WCI  14



USA.gov is the U.S. government's official web portal to all federal, state and local government web resources and services.